Home   Weather   Pori   Past weeks

Flag for Finland Past Weather in Pori, Finland — Yesterday and Last 2 Weeks

Now
52 °F

Light rain. Passing clouds.


Feels Like: 48 °F
Forecast: 49 / 55 °F
Wind: 10 mph from Southwest

Location: Pori Airport

Current Time: Sep 30, 2016 at 6:17:15 AM

Latest Report: Sep 30, 2016 at 5:50 AM


Visibility: N/A

Pressure: 28.94 "Hg

Humidity: 88%

Dew Point: 48 °F

Location of PoriLocation

Past Weather in Pori — Graph

°F

Pori Temperature Yesterday

Maximum temperature yesterday: 59 °F (at 6:20 PM)
Minimum temperature yesterday: 41 °F (at 7:20 AM)
Average temperature yesterday: 51 °F

High & Low Weather Summary for the Past Weeks

 TemperatureHumidityPressure
High64 °F (Sep 15, 12:50 PM)100% (Sep 15, 4:20 AM)30.27 "Hg (Sep 15, 4:20 AM)
Low34 °F (Sep 17, 4:20 AM)48% (Sep 16, 2:50 PM)28.97 "Hg (Sep 30, 3:20 AM)
Average51 °F83%30.05 "Hg
* Reported Sep 15 4:20 AM — Sep 30 4:50 AM, Pori, Weather by CustomWeather, © 2016

Note: Actual official high and low records may vary slightly from our data, if they occured in-between our weather recording intervals... More about our weather records

Advertising

Pori Weather History for the Previous 24 Hours

Scroll right to see more
 ConditionsComfort  
Time TempWeatherWind HumidityBarometerVisibility
4:50 AM
Fri, Sep 30
54 °FLight rain. Partly cloudy.15 mph82%28.97 "HgN/A
4:20 AM52 °FHeavy rain. Partly cloudy.15 mph88%28.97 "Hg5 mi
3:50 AM52 °FHeavy rain. Mostly cloudy.17 mph94%28.97 "Hg5 mi
3:20 AM54 °FLight rain. Partly cloudy.16 mph82%28.97 "HgN/A
2:50 AM55 °FMostly cloudy.17 mph72%29.00 "HgN/A
2:20 AM55 °FPartly cloudy.17 mph72%29.00 "HgN/A
1:50 AM55 °FPassing clouds.16 mph72%29.00 "HgN/A
1:20 AM55 °FClear.15 mph72%29.03 "Hg10 mi
12:50 AM55 °FClear.15 mph77%29.03 "Hg10 mi
12:20 AM55 °FClear.15 mph77%29.03 "Hg10 mi
11:50 PM
Thu, Sep 29
55 °FPassing clouds.15 mph77%29.03 "HgN/A
11:20 PM54 °FPassing clouds.9 mph82%29.03 "HgN/A
10:50 PM50 °FPassing clouds.5 mph94%29.03 "HgN/A
10:20 PM52 °FLight rain. Passing clouds.8 mph88%29.06 "HgN/A
9:50 PM52 °FLight rain. Mostly cloudy.12 mph88%29.06 "HgN/A
9:20 PM57 °FPassing clouds.17 mph77%29.06 "HgN/A
8:50 PM59 °FPartly cloudy.18 mph82%29.06 "HgN/A
8:20 PM59 °FPassing clouds.18 mph82%29.06 "HgN/A
7:50 PM59 °FPassing clouds.17 mph88%29.06 "HgN/A
7:20 PM59 °FLight rain. Partly cloudy.16 mph94%29.06 "HgN/A
6:50 PM59 °FLight rain. Partly sunny.17 mph88%29.09 "HgN/A
6:20 PM59 °FLight rain. More clouds than sun.16 mph88%29.12 "HgN/A
5:50 PM55 °FLight rain. Mostly cloudy.17 mph100%29.15 "HgN/A
5:20 PM55 °FLow clouds.17 mph94%29.15 "HgN/A
4:50 PM54 °FLight rain. Mostly cloudy.18 mph94%29.18 "HgN/A
4:20 PM54 °FRain. Mostly cloudy.14 mph94%29.21 "Hg6 mi
3:50 PM54 °FRain. Mostly cloudy.17 mph94%29.24 "Hg3 mi
3:20 PM55 °FRain. Cloudy.15 mph88%29.30 "Hg4 mi
2:50 PM55 °FLight rain. Mostly cloudy.14 mph88%29.33 "HgN/A
2:20 PM54 °FLight rain. Broken clouds.10 mph94%29.36 "HgN/A
1:50 PM54 °FLight rain. Partly sunny.12 mph94%29.39 "HgN/A
1:20 PM54 °FLight rain. Broken clouds.12 mph88%29.42 "HgN/A
12:50 PM54 °FScattered clouds.10 mph88%29.45 "HgN/A
12:20 PM54 °FSunny.10 mph88%29.47 "Hg10 mi
11:50 AM54 °FSunny.9 mph88%29.47 "Hg10 mi
11:20 AM52 °FSunny.9 mph94%29.47 "Hg10 mi
10:50 AM52 °FSunny.8 mph94%29.50 "Hg10 mi
10:20 AM50 °FSunny.7 mph100%29.50 "Hg10 mi
9:50 AM48 °FSunny.5 mph100%29.50 "Hg10 mi
9:20 AM46 °FSunny.2 mph100%29.53 "Hg10 mi
8:50 AM43 °FPassing clouds.2 mph100%29.53 "Hg4 mi
8:20 AM41 °FFog.2 mph100%29.53 "Hg1 mi
7:50 AM41 °FFog.1 mph100%29.53 "Hg0 mi
7:20 AM41 °FFog.No wind100%29.53 "Hg1 mi
6:50 AM43 °FFog.2 mph100%29.56 "Hg1 mi
6:20 AM46 °FFog.3 mph100%29.53 "Hg1 mi
Weather by CustomWeather, © 2016

See weather overviewHow to use our weather pages